Location: Trebic
(49.2170°N, 15.8830°E)
Time: 02:17:51
(UTC+02:00)

Courier 1B Rocket - Pass Details

Date: 30 August 2019
Orbit: 920 x 1202 km, 28.2° (Epoch: 20 September)

Event Time Altitude Azimuth Distance (km) Brightness Sun altitude
Rises 03:52:54 0° 235° (SW) 3,790 - -20.1°
Reaches altitude 10° 03:57:37 10° 207° (SSW) 2,909 - -19.6°
Maximum altitude 04:00:10 12° 186° (S) 2,786 - -19.3°
Exits shadow 04:01:11 12° 177° (S) 2,825 7.1 -19.1°
Drops below altitude 10° 04:02:48 10° 164° (SSE) 2,983 7.3 -18.9°
Sets 04:07:47 0° 137° (SE) 4,005 8.3 -18.3°
